Weather History for Clines Corner, NM

Change the Weather History Date:

Tuesday, September 17, 2013

  Actual Average (KSAF) Record (KSAF)
Temperature  
Mean Temperature 62 °F -  
Max Temperature 73 °F 84 °F 89 °F (2010)
Min Temperature 51 °F 45 °F 37 °F (2006)
Degree Days  
Heating Degree Days 4    
Growing Degree Days 12 (Base 50)    
Moisture  
Dew Point 53 °F    
Average Humidity 84    
Maximum Humidity 100    
Minimum Humidity 45    
Precipitation  
Precipitation 0.00 in - - ()
Sea Level Pressure  
Sea Level Pressure 30.12 in    
Wind  
Wind Speed 7 mph (South)    
Max Wind Speed 14 mph    
Max Gust Speed 16 mph    
Visibility 6 miles    
Events Fog    
Averages and records for this station are not official NWS values.
T = Trace of Precipitation, MM = Missing Value Source: NWS Daily Summary

Daily Weather History Graph

Daily Weather History Graph

Search for Another Location

Airport:

Trip Planner

Search our weather history database for the weather conditions in past years. The results will help you decide how hot, cold, wet, or windy it might be!

Date:

Astronomy

Sep. 17, 2013 Rise Set
Actual Time 6:47 AM MDT 7:06 PM MDT
Civil Twilight 6:21 AM MDT 7:31 PM MDT
Nautical Twilight 5:52 AM MDT 8:01 PM MDT
Astronomical Twilight 5:22 AM MDT 8:31 PM MDT
Moon 5:53 PM MDT (9/17) 4:48 AM MDT (9/17)
Length of Visible Light 13h 09m
Length of Day
12h 19m
Waxing Gibbous, 96% of the Moon is Illuminated
Sep 17
Waxing Gibbous
Sep 19
Full
Sep 26
Last Quarter
Oct 4
New
Oct 11
First Quarter

Hourly Weather History & Observations

Time (MDT) Temp. Dew Point Humidity Pressure Visibility Wind Dir Wind Speed Gust Speed Precip Events Conditions
12:53 AM 55.9 °F 53.1 °F 90% 30.11 in 10.0 mi SSE 4.6 mph - N/A   Partly Cloudy
1:53 AM 55.9 °F 53.1 °F 90% 30.09 in 10.0 mi ESE 3.5 mph - N/A   Mostly Cloudy
2:33 AM 53.6 °F 51.8 °F 94% 30.30 in 10.0 mi South 6.9 mph - N/A   Partly Cloudy
3:31 AM 53.6 °F 53.6 °F 100% 30.30 in 1.5 mi SSE 9.2 mph - N/A   Mostly Cloudy
3:33 AM 53.6 °F 53.6 °F 100% 30.29 in 0.8 mi South 9.2 mph - N/A   Mist
3:44 AM 53.6 °F 53.6 °F 100% 30.29 in 0.2 mi South 8.1 mph - N/A Fog Fog
3:53 AM 54.0 °F 53.1 °F 97% 30.06 in 0.2 mi South 8.1 mph - N/A Fog Fog
4:38 AM 53.6 °F 51.8 °F 94% 30.29 in 1.0 mi South 8.1 mph - N/A   Mist
4:42 AM 53.6 °F 51.8 °F 94% 30.29 in 4.0 mi South 8.1 mph - N/A   Mostly Cloudy
4:53 AM 53.1 °F 52.0 °F 96% 30.07 in 6.0 mi South 9.2 mph - N/A   Mostly Cloudy
4:56 AM 53.6 °F 51.8 °F 94% 30.29 in 1.5 mi South 9.2 mph - N/A   Mostly Cloudy
4:59 AM 53.6 °F 53.6 °F 100% 30.29 in 0.8 mi South 9.2 mph - N/A   Mist
5:17 AM 53.6 °F 53.6 °F 100% 30.29 in 0.2 mi South 8.1 mph - N/A Fog Fog
5:25 AM 53.6 °F 53.6 °F 100% 30.29 in 0.5 mi South 8.1 mph - N/A Fog Fog
5:48 AM 53.6 °F 51.8 °F 94% 30.29 in 0.2 mi South 5.8 mph - N/A Fog Fog
5:53 AM 53.1 °F 52.0 °F 96% 30.07 in 0.2 mi SSE 5.8 mph - N/A Fog Fog
6:05 AM 53.6 °F 51.8 °F 94% 30.29 in 0.2 mi SSE 3.5 mph - N/A Fog Fog
6:53 AM 52.0 °F 51.1 °F 97% 30.08 in 0.2 mi South 3.5 mph - N/A Fog Fog
7:32 AM 51.8 °F 50.0 °F 94% 30.30 in 1.0 mi Calm Calm - N/A   Mist
7:41 AM 53.6 °F 51.8 °F 94% 30.30 in 3.0 mi WSW 3.5 mph - N/A   Mostly Cloudy
7:53 AM 54.0 °F 53.1 °F 97% 30.11 in 10.0 mi Calm Calm - N/A   Scattered Clouds
8:53 AM 61.0 °F 54.0 °F 78% 30.07 in 10.0 mi WSW 9.2 mph - N/A   Clear
9:53 AM 64.0 °F 54.0 °F 70% 30.06 in 10.0 mi WSW 12.7 mph - N/A   Clear
10:53 AM 66.0 °F 54.0 °F 65% 30.05 in 10.0 mi WSW 12.7 mph - N/A   Clear
11:53 AM 66.9 °F 54.0 °F 63% 30.04 in 10.0 mi WSW 12.7 mph - N/A   Partly Cloudy
12:53 PM 68.0 °F 54.0 °F 61% 30.01 in 10.0 mi SSW 11.5 mph - N/A   Partly Cloudy
1:53 PM 70.0 °F 52.0 °F 53% 29.97 in 10.0 mi SW 11.5 mph - N/A   Clear
2:53 PM 72.0 °F 50.0 °F 46% 29.94 in 10.0 mi WSW 13.8 mph - N/A   Partly Cloudy
3:53 PM 71.1 °F 50.0 °F 47% 29.92 in 10.0 mi WSW 11.5 mph 16.1 mph N/A   Scattered Clouds
4:53 PM 71.1 °F 48.9 °F 45% 29.92 in 10.0 mi SW 11.5 mph - N/A   Clear
5:53 PM 70.0 °F 52.0 °F 53% 29.91 in 10.0 mi SW 10.4 mph - N/A   Partly Cloudy
6:53 PM 64.9 °F 57.0 °F 75% 29.94 in 10.0 mi SSE 10.4 mph - N/A   Mostly Cloudy
7:53 PM 61.0 °F 55.9 °F 83% 29.95 in 10.0 mi South 10.4 mph - N/A   Partly Cloudy
8:53 PM 59.0 °F 55.9 °F 90% 29.96 in 10.0 mi South 10.4 mph - N/A   Clear
9:53 PM 57.9 °F 55.0 °F 90% 29.96 in 10.0 mi South 11.5 mph - N/A   Clear
10:53 PM 57.0 °F 54.0 °F 89% 29.96 in 10.0 mi South 6.9 mph - N/A   Clear
11:53 PM 57.0 °F 54.0 °F 89% 29.95 in 10.0 mi South 8.1 mph - N/A   Clear